SCP
0 0 0 0 0 -0 0 0 0 0 0 0 0 0 0 0 0 0 0 0 0 0 0 0 0 0 0 0 0 0 0 0 0 0 0 0 0 0 0 0 0 0 0
-0 -0 0 0 0 -0 -0 0 0 -0 0 0 0 0 0 0 0 0 0 0 0 0 0 0 0 0 0 0 0 0 0 0 0 0 0 0 0 0 0 0 0 0 0
-0 -0 -0 -0 -0 -0 -0 -0 0 0 0 0 0 0 0 0 0 0 0 0 -0 0 0 0 0 0 0 0 0 0 0 0 0 0 0 0 0 0 0 0 0 0 0
-0 -0 -0 -0 -0 -0 -0 -0 -0 -0 0 0 0 0 0 0 0 0 -0 -0 -0 0 0 0 0 0 0 0 0 0 0 0 0 0 0 0 0 0 0 0 0 0 0
-0 -0 -0 -0 -0 -0 -0 -0 -0 -0 -0 -0 0 0 0 0 0 0 0 0 0 0 0 0 0 0 0 0 0 0 0 0 0 0 0 0 0 0 0 0 0 0 0
-0 -0 -0 -0 -0 -0 -0 -0 -0 -0 -0 -0 -0 -0 -0 0 0 0 0 0 0 0 0 0 0 0 0 0 0 0 0 0 0 0 0 0 0 0 0 0 0 0 0
-0 -0 -0 -0 -0 -0 -0 -0 -0 -0 -0 -0 -0 -0 -0 -0 0 0 -0 -0 0 0 0 0 0 0 0 0 0 0 0 0 0 0 0 0 0 0 0 0 0 0 0
-0 -0 -0 -0 -0 -0 -0 -0 -0 -0 -0 -0 -0 -0 -0 -0 -0 -0 -0 0 0 0 0 0 0 0 0 0 0 0 0 0 0 0 0 0 0 0 0 0 0 0 0
-0 -0 -0 -0 -0 -0 -0 -0 -0 -0 -0 -0 -0 -0 -0 -0 -0 -0 -0 -0 0 0 -0 -0 0 0 0 -0 -0 -0 -0 0 0 0 0 0 0 0 0 0 0 0 0
0 0 -0 -0 -0 -0 -0 -0 -0 -0 -0 -0 -0 -0 -0 -0 -0 -0 -0 -0 -0 -0 -0 0 0 0 -0 -0 -0 0 0 0 0 0 0 0 0 0 0 0 0 0 0
0 0 0 0 0 -0 -0 -0 -0 -0 -0 -0 -0 -0 -0 -0 -0 -0 0 0 -0 -0 -0 0 -0 -0 -0 -0 0 0 0 0 0 0 0 0 0 0 0 0 0 0 0
0 0 0 0 0 0 -0 -0 -0 -0 -0 -0 -0 -0 -0 -0 -0 -0 -0 0 0 -0 0 0 0 0 0 0 0 0 0 0 0 0 0 0 0 0 0 0 0 0 0
0 0 0 0 0 0 0 -0 -0 -0 -0 -0 0 0 -0 -0 -0 -0 0 0 -0 0 0 0 0 0 0 0 0 0 0 0 0 0 0 0 0 0 0 0 0 0 0
0 0 0 0 0 0 0 0 0 0 0 0 0 0 0 0 0 0 0 0 0 0 0 0 0 0 0 0 0 0 0 0 0 0 0 0 0 0 0 0 0 0 0
0 0 0 0 0 0 0 0 0 0 0 0 0 0 0 0 0 0 0 0 0 0 0 0 0 0 0 0 0 0 0 0 0 0 0 0 0 0 0 0 0 0 0
0 0 0 0 0 0 0 0 0 0 0 0 0 0 0 0 0 0 0 0 0 0 0 0 0 0 0 0 0 0 0 0 0 0 0 0 0 0 0 0 0 0 0
0 0 0 0 0 0 0 0 0 0 0 0 0 0 0 0 0 0 0 0 0 0 0 0 0 0 0 0 0 0 0 0 0 0 0 0 0 0 0 0 0 0 0
0 0 0 0 0 0 0 0 0 0 0 0 0 0 0 0 0 0 0 0 0 0 0 0 0 0 0 0 0 0 0 0 0 0 0 0 0 0 0 0 0 0 0
0 0 0 0 0 0 0 0 0 0 0 0 0 0 0 0 0 0 0 0 0 0 0 0 0 0 0 0 0 0 0 0 0 0 0 0 0 0 0 0 0 0 0
0 0 0 0 0 0 0 0 0 0 0 0 0 0 0 0 0 0 0 0 0 0 0 0 0 0 0 0 0 0 0 0 0 0 0 0 0 0 0 0 0 0 0
0 0 0 0 0 0 0 0 0 0 0 0 0 0 0 0 0 0 0 0 0 0 0 0 0 0 0 0 0 0 0 0 0 0 0 0 0 0 0 0 0 0 0
0 0 0 0 0 0 0 0 0 0 0 0 0 0 0 0 0 0 0 0 0 0 0 0 0 0 0 0 0 0 0 0 0 0 0 0 0 0 0 0 0 0 0
0 0 -0 0 0 0 0 0 0 0 0 0 0 0 0 0 0 0 0 0 0 0 0 0 0 0 0 0 0 0 0 0 0 0 0 0 0 0 0 0 0 0 0
0 0 0 -0 -0 0 0 0 0 0 0 0 0 0 0 0 0 0 0 0 0 0 0 0 0 0 0 0 0 0 0 0 0 0 0 0 0 0 0 0 0 0 0
0 0 0 0 0 0 0 0 0 0 0 0 0 0 0 0 0 0 0 0 0 0 0 0 0 0 0 0 0 0 0 0 0 0 0 0 0 0 0 0 0 0 0
0 0 0 0 0 0 0 0 0 0 0 0 0 0 0 0 0 0 0 0 0 0 0 0 0 0 0 0 0 0 0 0 0 0 0 0 0 0 0 0 0 0 0
Wind_Speed_500mb
24 21 19 21 30 32 43 40 40 44 57 63 67 70 72 71 93 79 76 81 83 82 75 67 62 62 50 45 47 42 39 36 33 25 24 25 25 28 29 31 32 33 32
32 30 25 24 35 36 44 43 41 38 59 63 69 63 80 70 82 80 75 77 75 71 71 70 65 62 56 52 44 43 41 35 35 22 19 17 20 36 39 39 41 43 41
39 37 33 30 37 46 46 50 44 47 58 55 67 66 77 72 72 86 83 85 72 72 72 69 66 62 59 53 46 46 39 34 34 38 22 14 20 15 21 31 38 42 47
41 39 38 38 40 48 48 50 57 55 51 56 75 69 91 98 68 80 91 101 78 68 78 71 67 64 59 49 44 42 38 35 29 31 42 39 26 25 29 21 32 37 41
45 46 44 40 40 43 49 50 57 59 59 55 75 78 87 94 63 68 83 92 82 69 82 74 68 64 54 52 45 40 37 40 39 38 31 38 40 38 41 47 34 40 50
48 47 44 41 39 43 46 48 48 54 64 63 70 75 73 82 66 75 80 83 91 82 81 72 75 64 60 53 53 51 51 48 47 41 37 39 33 38 35 45 50 41 56
50 52 53 52 48 47 46 49 51 53 61 66 76 79 83 89 87 88 91 87 92 85 102 86 84 78 70 75 68 64 59 56 55 58 53 55 60 55 57 66 69 45 54
48 56 57 54 52 54 52 51 52 54 58 69 76 73 81 89 86 91 83 84 92 97 93 91 85 89 80 77 83 71 59 66 61 58 61 69 66 78 74 66 54 66 45
43 51 53 55 53 55 57 57 54 55 57 63 77 78 78 82 77 80 89 92 93 93 93 95 95 92 90 77 84 71 62 64 62 64 67 70 70 74 71 75 76 63 40
35 44 51 53 52 52 54 54 55 57 58 60 66 72 78 75 79 75 80 94 93 94 89 94 101 91 91 88 75 76 70 66 65 70 69 72 73 73 70 62 64 64 64
28 38 46 49 51 50 55 58 59 58 59 62 63 69 78 80 87 84 86 89 87 92 88 92 93 84 81 79 75 74 71 69 78 77 75 69 63 72 76 75 62 67 66
16 29 39 47 53 56 57 61 62 63 64 63 65 68 69 72 83 90 93 95 113 98 98 105 94 89 89 89 88 92 85 94 86 79 76 70 67 63 71 50 62 74 76
10 20 32 43 52 57 60 63 69 72 67 65 68 69 74 77 85 89 88 88 87 91 92 88 95 107 110 107 100 101 100 94 93 82 83 83 86 78 61 68 82 83 75
13 15 24 35 43 50 57 61 65 69 70 70 70 71 77 81 82 81 83 86 90 90 98 97 92 90 86 83 90 94 98 99 95 96 90 90 78 78 79 73 89 76 74
30 27 26 26 33 44 50 55 58 62 67 69 73 83 82 79 76 77 78 81 85 88 86 88 93 91 87 89 90 87 90 99 96 91 89 81 82 81 80 70 73 77 75
34 33 38 38 36 40 47 51 56 61 63 69 72 72 74 77 82 82 81 79 82 83 81 83 84 87 90 96 98 94 84 89 90 92 91 85 76 80 73 71 73 72 79
40 37 32 32 34 40 45 50 53 54 62 66 68 69 66 69 71 70 73 77 81 77 82 84 79 80 83 94 96 88 83 79 74 76 79 88 79 80 72 74 75 69 68
40 37 23 21 25 35 41 50 45 53 62 69 67 65 66 66 60 58 60 60 61 65 68 67 66 68 69 79 73 68 66 72 72 72 73 76 72 78 82 78 76 67 60
36 34 36 36 38 41 39 41 45 51 55 67 71 69 62 61 59 60 55 50 50 54 54 54 53 52 50 52 55 61 71 71 70 72 68 70 72 73 65 58 53 51 51
46 45 42 40 40 36 36 37 39 45 55 53 52 52 56 59 57 54 53 57 52 50 42 41 45 53 57 56 56 59 60 62 66 64 62 54 54 51 50 45 46 44 36
43 49 34 31 36 40 36 30 27 34 38 42 45 43 47 49 47 54 55 48 42 40 43 48 50 51 54 56 58 58 59 62 64 60 52 49 45 44 46 41 36 27 20
34 42 38 31 28 30 24 20 13 29 33 35 41 44 46 51 50 47 42 38 40 45 41 46 46 44 43 42 41 36 34 38 43 47 45 46 46 37 32 27 20 11 9
28 29 33 32 30 25 11 9 8 12 16 19 25 30 33 34 37 39 38 39 38 42 37 42 42 39 39 40 33 28 27 31 38 34 36 34 30 26 20 11 12 15 20
26 26 24 34 34 31 23 8 8 7 7 12 20 26 30 34 33 32 32 32 34 37 36 38 37 37 36 33 32 33 34 35 34 34 32 26 21 18 17 16 16 21 27
15 23 26 29 33 34 28 17 4 6 14 19 22 23 22 22 24 24 22 22 21 19 25 31 33 39 39 37 34 32 32 30 25 22 19 15 12 5 7 14 21 23 24
13 18 21 18 22 21 23 26 23 8 7 20 24 29 30 29 31 31 29 27 21 22 22 25 28 34 28 34 32 26 21 17 13 11 7 4 6 9 10 10 10 13 18
Wind_Direction_500mb
205 204 212 207 201 202 198 196 202 216 193 188 180 181 183 184 185 184 187 190 189 191 192 194 192 193 192 194 193 195 199 196 196 190 208 224 235 236 239 241 243 247 243
200 200 201 194 191 189 196 201 213 202 199 196 191 185 189 187 189 188 192 194 198 195 199 198 196 200 202 207 204 208 212 209 213 204 212 222 241 251 249 247 252 248 244
198 198 196 194 190 193 194 201 205 203 198 202 198 195 191 188 190 196 196 195 202 200 204 203 202 202 209 211 212 219 226 215 226 220 227 225 244 240 244 252 247 247 249
202 196 195 194 194 197 198 195 201 203 204 210 197 199 193 194 192 198 198 206 211 208 208 209 209 211 214 217 226 229 233 233 234 242 241 239 246 247 262 240 257 252 254
199 195 196 198 195 191 195 195 208 206 204 211 203 206 199 202 201 204 201 202 215 213 209 213 215 219 218 218 227 238 240 249 243 244 250 248 251 254 253 261 251 251 256
195 195 193 192 196 194 191 192 195 204 205 207 206 211 201 202 209 206 206 208 208 207 209 214 220 221 220 224 234 246 241 244 254 250 247 246 248 251 250 259 263 253 267
193 193 191 192 191 196 196 193 194 197 204 205 206 206 204 199 212 209 208 214 210 213 213 216 217 219 234 240 243 243 245 254 261 262 260 267 266 266 275 269 266 262 261
197 195 195 195 194 193 194 197 196 196 198 203 206 207 207 208 214 212 214 211 208 211 214 215 222 224 236 239 245 249 251 260 262 262 269 275 265 276 276 264 243 248 251
197 200 198 197 198 198 197 196 197 197 198 199 206 209 209 211 212 213 215 211 212 216 218 221 225 230 235 246 245 246 251 259 259 265 274 274 269 263 270 254 254 240 237
189 198 203 203 202 203 203 202 200 200 201 201 201 204 208 213 212 214 215 215 216 218 221 223 226 233 240 243 241 245 251 254 255 263 270 272 270 265 266 264 256 245 250
190 194 201 206 207 206 206 208 207 204 204 206 207 207 208 209 211 216 218 218 219 221 225 228 232 236 239 237 239 245 250 249 258 263 269 271 275 271 267 255 256 248 243
208 200 198 200 205 208 208 210 210 210 209 209 209 212 214 213 215 219 220 220 222 226 227 229 232 235 236 239 241 245 248 255 259 268 273 267 272 272 273 269 266 258 247
192 200 202 201 206 209 211 212 216 217 215 212 214 215 217 217 221 222 222 223 225 226 229 231 235 239 241 242 243 245 248 255 259 264 271 264 268 256 251 262 261 249 236
247 212 206 211 212 211 214 215 219 219 217 217 216 218 221 224 225 226 227 228 230 230 234 235 236 237 238 239 243 248 251 253 258 267 262 265 260 258 259 261 256 243 238
279 261 241 223 222 218 217 218 221 220 219 218 222 228 231 229 228 230 232 233 235 236 236 238 242 245 245 244 246 248 253 256 262 267 262 262 260 261 254 256 251 245 236
290 276 263 256 238 227 226 220 221 220 218 220 229 228 228 230 235 235 235 236 239 239 239 240 241 244 246 251 253 253 258 270 268 261 260 265 262 251 246 250 250 243 237
316 313 298 275 259 249 248 234 232 222 223 224 225 225 224 228 231 234 235 238 240 242 243 244 243 245 249 254 258 261 263 264 265 263 260 255 254 248 242 245 240 230 224
316 320 313 318 302 276 252 248 227 229 233 233 228 227 227 227 225 226 230 231 232 236 241 242 241 243 248 259 264 262 258 258 259 258 257 251 249 251 239 233 222 213 215
322 308 306 302 309 306 279 256 240 234 227 233 233 230 226 227 224 226 227 227 228 234 239 246 252 257 263 266 272 269 259 254 253 250 245 244 241 232 223 214 209 208 214
347 332 312 308 301 297 291 273 255 231 232 230 226 224 224 225 225 224 224 227 227 234 240 246 251 256 258 258 257 255 251 249 242 237 234 236 227 213 203 207 216 209 217
345 348 337 320 305 301 299 286 270 247 238 228 225 222 222 223 217 215 223 224 227 226 237 240 244 248 251 252 252 253 251 243 235 226 212 192 197 198 197 200 209 218 226
349 2 354 346 326 313 314 288 261 241 242 232 225 220 216 216 216 218 213 213 224 223 222 231 233 237 239 239 236 230 228 230 226 201 187 187 189 200 200 205 224 253 280
350 3 10 5 351 337 349 330 306 293 270 238 215 209 205 206 200 202 201 203 211 223 223 223 223 220 212 203 189 190 191 187 180 177 181 186 188 199 213 208 233 253 251
358 2 12 33 25 12 360 58 107 140 212 197 187 184 180 184 187 191 197 209 214 217 218 215 208 193 182 178 176 176 177 178 178 176 186 187 190 203 225 247 257 247 257
356 15 18 34 44 36 5 348 27 149 182 183 179 173 174 182 185 186 191 197 197 206 209 195 187 179 173 173 179 184 182 182 183 181 184 195 209 246 249 254 267 272 279
0 346 9 32 51 53 45 20 351 342 218 180 168 171 174 174 169 166 161 155 153 161 170 173 179 167 177 173 169 165 165 169 173 172 176 208 243 244 256 257 265 278 282
Wind_Speed_850mb
24 21 19 21 30 32 43 40 40 44 57 63 67 70 72 71 93 79 76 81 83 82 75 67 62 62 50 45 47 42 39 36 33 25 24 25 25 28 29 31 32 33 32
32 30 25 24 35 36 44 43 41 38 59 63 69 63 80 70 82 80 75 77 75 71 71 70 65 62 56 52 44 43 41 35 35 22 19 17 20 36 39 39 41 43 41
39 37 33 30 37 46 46 50 44 47 58 55 67 66 77 72 72 86 83 85 72 72 72 69 66 62 59 53 46 46 39 34 34 38 22 14 20 15 21 31 38 42 47
41 39 38 38 40 48 48 50 57 55 51 56 75 69 91 98 68 80 91 101 78 68 78 71 67 64 59 49 44 42 38 35 29 31 42 39 26 25 29 21 32 37 41
45 46 44 40 40 43 49 50 57 59 59 55 75 78 87 94 63 68 83 92 82 69 82 74 68 64 54 52 45 40 37 40 39 38 31 38 40 38 41 47 34 40 50
48 47 44 41 39 43 46 48 48 54 64 63 70 75 73 82 66 75 80 83 91 82 81 72 75 64 60 53 53 51 51 48 47 41 37 39 33 38 35 45 50 41 56
50 52 53 52 48 47 46 49 51 53 61 66 76 79 83 89 87 88 91 87 92 85 102 86 84 78 70 75 68 64 59 56 55 58 53 55 60 55 57 66 69 45 54
48 56 57 54 52 54 52 51 52 54 58 69 76 73 81 89 86 91 83 84 92 97 93 91 85 89 80 77 83 71 59 66 61 58 61 69 66 78 74 66 54 66 45
43 51 53 55 53 55 57 57 54 55 57 63 77 78 78 82 77 80 89 92 93 93 93 95 95 92 90 77 84 71 62 64 62 64 67 70 70 74 71 75 76 63 40
35 44 51 53 52 52 54 54 55 57 58 60 66 72 78 75 79 75 80 94 93 94 89 94 101 91 91 88 75 76 70 66 65 70 69 72 73 73 70 62 64 64 64
28 38 46 49 51 50 55 58 59 58 59 62 63 69 78 80 87 84 86 89 87 92 88 92 93 84 81 79 75 74 71 69 78 77 75 69 63 72 76 75 62 67 66
16 29 39 47 53 56 57 61 62 63 64 63 65 68 69 72 83 90 93 95 113 98 98 105 94 89 89 89 88 92 85 94 86 79 76 70 67 63 71 50 62 74 76
10 20 32 43 52 57 60 63 69 72 67 65 68 69 74 77 85 89 88 88 87 91 92 88 95 107 110 107 100 101 100 94 93 82 83 83 86 78 61 68 82 83 75
13 15 24 35 43 50 57 61 65 69 70 70 70 71 77 81 82 81 83 86 90 90 98 97 92 90 86 83 90 94 98 99 95 96 90 90 78 78 79 73 89 76 74
30 27 26 26 33 44 50 55 58 62 67 69 73 83 82 79 76 77 78 81 85 88 86 88 93 91 87 89 90 87 90 99 96 91 89 81 82 81 80 70 73 77 75
34 33 38 38 36 40 47 51 56 61 63 69 72 72 74 77 82 82 81 79 82 83 81 83 84 87 90 96 98 94 84 89 90 92 91 85 76 80 73 71 73 72 79
40 37 32 32 34 40 45 50 53 54 62 66 68 69 66 69 71 70 73 77 81 77 82 84 79 80 83 94 96 88 83 79 74 76 79 88 79 80 72 74 75 69 68
40 37 23 21 25 35 41 50 45 53 62 69 67 65 66 66 60 58 60 60 61 65 68 67 66 68 69 79 73 68 66 72 72 72 73 76 72 78 82 78 76 67 60
36 34 36 36 38 41 39 41 45 51 55 67 71 69 62 61 59 60 55 50 50 54 54 54 53 52 50 52 55 61 71 71 70 72 68 70 72 73 65 58 53 51 51
46 45 42 40 40 36 36 37 39 45 55 53 52 52 56 59 57 54 53 57 52 50 42 41 45 53 57 56 56 59 60 62 66 64 62 54 54 51 50 45 46 44 36
43 49 34 31 36 40 36 30 27 34 38 42 45 43 47 49 47 54 55 48 42 40 43 48 50 51 54 56 58 58 59 62 64 60 52 49 45 44 46 41 36 27 20
34 42 38 31 28 30 24 20 13 29 33 35 41 44 46 51 50 47 42 38 40 45 41 46 46 44 43 42 41 36 34 38 43 47 45 46 46 37 32 27 20 11 9
28 29 33 32 30 25 11 9 8 12 16 19 25 30 33 34 37 39 38 39 38 42 37 42 42 39 39 40 33 28 27 31 38 34 36 34 30 26 20 11 12 15 20
26 26 24 34 34 31 23 8 8 7 7 12 20 26 30 34 33 32 32 32 34 37 36 38 37 37 36 33 32 33 34 35 34 34 32 26 21 18 17 16 16 21 27
15 23 26 29 33 34 28 17 4 6 14 19 22 23 22 22 24 24 22 22 21 19 25 31 33 39 39 37 34 32 32 30 25 22 19 15 12 5 7 14 21 23 24
13 18 21 18 22 21 23 26 23 8 7 20 24 29 30 29 31 31 29 27 21 22 22 25 28 34 28 34 32 26 21 17 13 11 7 4 6 9 10 10 10 13 18
Wind_Direction_850mb
205 204 212 207 201 202 198 196 202 216 193 188 180 181 183 184 185 184 187 190 189 191 192 194 192 193 192 194 193 195 199 196 196 190 208 224 235 236 239 241 243 247 243
200 200 201 194 191 189 196 201 213 202 199 196 191 185 189 187 189 188 192 194 198 195 199 198 196 200 202 207 204 208 212 209 213 204 212 222 241 251 249 247 252 248 244
198 198 196 194 190 193 194 201 205 203 198 202 198 195 191 188 190 196 196 195 202 200 204 203 202 202 209 211 212 219 226 215 226 220 227 225 244 240 244 252 247 247 249
202 196 195 194 194 197 198 195 201 203 204 210 197 199 193 194 192 198 198 206 211 208 208 209 209 211 214 217 226 229 233 233 234 242 241 239 246 247 262 240 257 252 254
199 195 196 198 195 191 195 195 208 206 204 211 203 206 199 202 201 204 201 202 215 213 209 213 215 219 218 218 227 238 240 249 243 244 250 248 251 254 253 261 251 251 256
195 195 193 192 196 194 191 192 195 204 205 207 206 211 201 202 209 206 206 208 208 207 209 214 220 221 220 224 234 246 241 244 254 250 247 246 248 251 250 259 263 253 267
193 193 191 192 191 196 196 193 194 197 204 205 206 206 204 199 212 209 208 214 210 213 213 216 217 219 234 240 243 243 245 254 261 262 260 267 266 266 275 269 266 262 261
197 195 195 195 194 193 194 197 196 196 198 203 206 207 207 208 214 212 214 211 208 211 214 215 222 224 236 239 245 249 251 260 262 262 269 275 265 276 276 264 243 248 251
197 200 198 197 198 198 197 196 197 197 198 199 206 209 209 211 212 213 215 211 212 216 218 221 225 230 235 246 245 246 251 259 259 265 274 274 269 263 270 254 254 240 237
189 198 203 203 202 203 203 202 200 200 201 201 201 204 208 213 212 214 215 215 216 218 221 223 226 233 240 243 241 245 251 254 255 263 270 272 270 265 266 264 256 245 250
190 194 201 206 207 206 206 208 207 204 204 206 207 207 208 209 211 216 218 218 219 221 225 228 232 236 239 237 239 245 250 249 258 263 269 271 275 271 267 255 256 248 243
208 200 198 200 205 208 208 210 210 210 209 209 209 212 214 213 215 219 220 220 222 226 227 229 232 235 236 239 241 245 248 255 259 268 273 267 272 272 273 269 266 258 247
192 200 202 201 206 209 211 212 216 217 215 212 214 215 217 217 221 222 222 223 225 226 229 231 235 239 241 242 243 245 248 255 259 264 271 264 268 256 251 262 261 249 236
247 212 206 211 212 211 214 215 219 219 217 217 216 218 221 224 225 226 227 228 230 230 234 235 236 237 238 239 243 248 251 253 258 267 262 265 260 258 259 261 256 243 238
279 261 241 223 222 218 217 218 221 220 219 218 222 228 231 229 228 230 232 233 235 236 236 238 242 245 245 244 246 248 253 256 262 267 262 262 260 261 254 256 251 245 236
290 276 263 256 238 227 226 220 221 220 218 220 229 228 228 230 235 235 235 236 239 239 239 240 241 244 246 251 253 253 258 270 268 261 260 265 262 251 246 250 250 243 237
316 313 298 275 259 249 248 234 232 222 223 224 225 225 224 228 231 234 235 238 240 242 243 244 243 245 249 254 258 261 263 264 265 263 260 255 254 248 242 245 240 230 224
316 320 313 318 302 276 252 248 227 229 233 233 228 227 227 227 225 226 230 231 232 236 241 242 241 243 248 259 264 262 258 258 259 258 257 251 249 251 239 233 222 213 215
322 308 306 302 309 306 279 256 240 234 227 233 233 230 226 227 224 226 227 227 228 234 239 246 252 257 263 266 272 269 259 254 253 250 245 244 241 232 223 214 209 208 214
347 332 312 308 301 297 291 273 255 231 232 230 226 224 224 225 225 224 224 227 227 234 240 246 251 256 258 258 257 255 251 249 242 237 234 236 227 213 203 207 216 209 217
345 348 337 320 305 301 299 286 270 247 238 228 225 222 222 223 217 215 223 224 227 226 237 240 244 248 251 252 252 253 251 243 235 226 212 192 197 198 197 200 209 218 226
349 2 354 346 326 313 314 288 261 241 242 232 225 220 216 216 216 218 213 213 224 223 222 231 233 237 239 239 236 230 228 230 226 201 187 187 189 200 200 205 224 253 280
350 3 10 5 351 337 349 330 306 293 270 238 215 209 205 206 200 202 201 203 211 223 223 223 223 220 212 203 189 190 191 187 180 177 181 186 188 199 213 208 233 253 251
358 2 12 33 25 12 360 58 107 140 212 197 187 184 180 184 187 191 197 209 214 217 218 215 208 193 182 178 176 176 177 178 178 176 186 187 190 203 225 247 257 247 257
356 15 18 34 44 36 5 348 27 149 182 183 179 173 174 182 185 186 191 197 197 206 209 195 187 179 173 173 179 184 182 182 183 181 184 195 209 246 249 254 267 272 279
0 346 9 32 51 53 45 20 351 342 218 180 168 171 174 174 169 166 161 155 153 161 170 173 179 167 177 173 169 165 165 169 173 172 176 208 243 244 256 257 265 278 282